GAOFEN 3 DEB

Satellite information

Favourite Embed

Satellite Type and Status

DEBRISIN ORBIT

Key statistics

Satellite GAOFEN 3 DEB at a glance.

Uptime

3414

Days in orbit

Revolutions

≈ 14.5

Per day

Orbit

SSO

Sun Synchronous Orbit

Inclination

98.3

Latest

Satellite identification and parameters

Extended collection of information and parameters for GAOFEN 3 DEB.

Object identification

Identified? True

Debris? True

Object name: GAOFEN 3 DEB

International designator: 2016-049C

Object number (NORAD): 42678

Object ID (CCSDS): 42678

Country: PEOPLES REPUBLIC OF CHINA (PRC)

Current information (Y/N): Y

RCS size: SMALL

Orbital parameters

Period: 99.54 minutes

Inclination: 98.3208 deg

SMA: 7114.715 km

Apoapsis: 742.46 km

Periapsis: 730.7 km

RAAN: 356.6489 deg

Eccentricy: 0.00082647

Argument of periapsis: 191.4024 deg

Mean anomaly: 168.6983 deg

Mean motion: 14.466601 rev/day

Mean motion (dot): 0.00000379 rev/day2

B* drag term: 0.00011684146 1/REarth

Two-line elements (TLE)

Creation date: Dec. 13, 2025, 4:32 a.m.

Reference frame: TEME

Reference center: EARTH

Epoch: Dec. 12, 2025, 7:51 p.m. UTC

TLE line 0: 0 GAOFEN 3 DEB

TLE line 1: 1 42678U 16049C 25346.82767769 .00000379 00000-0 11684-3 0 9991

TLE line 2: 2 42678 98.3208 356.6489 0008265 191.4024 168.6983 14.46660100486975

Live tracking on map

Real-time ground track for satellite GAOFEN 3 DEB.

In-orbit conjunctions

A list of the most updated potential collisions computed for object GAOFEN 3 DEB.

Target Orbit TCA Probability of collision Miss distance Type
NOAA 16 DEB SSO 2024-11-10 21:08:24 0.000131605 333.0 (m) DEBRIS
CBERS 1 DEB SSO 2024-07-06 02:26:24 0.0001201447 560.0 (m) DEBRIS

Associated space launch

Gaofen 3 is the first medium-sized and long life (8 years) civil satellite of China. The satellite is a C-band Synthetic Aperture Radar capable of up to 1m ground resolution.

GAOFEN 3 DEB was lifted into orbit during the mission ‘Long March 4C | Gaofen 3’, on board a Long March 4C space rocket.

The launch took place on Aug. 9, 2016, 10:55 p.m. from Launch Complex 9.

For more information about the launch, click the button.

Launch to space Long March 4C | Gaofen 3
Long March 4C | Gaofen 3

Agency: N/A

Status: Launch Successful

Launch date: Aug. 9, 2016, 10:55 p.m. UTC

Rocket: Long March 4C

Launch pad: Launch Complex 9

Location: Taiyuan Satellite Launch Center, People's Republic of China

...

Latest news about this satellite

There are no fresh news available about this satellite. Check back as we update our databases every day.


Newsletter sign-up

Weekly statistics, charts and insights to help you stay on top of the space industry.